Time,TemperatureF,DewpointF,PressureIn,WindDirection,WindDirectionDegrees,WindSpeedMPH,WindSpeedGustMPH,Humidity,HourlyPrecipIn,Conditions,Clouds,dailyrainin,SoftwareType,DateUTC
2013-03-06 00:02:00,49.0,-99.9,-100.00,East,84,5.0,8.0,-999,-99.99,,,-99.99,,2013-03-06 07:02:00,
2013-03-06 00:11:00,49.0,-99.9,-100.00,East,84,5.0,8.0,-999,-99.99,,,-99.99,,2013-03-06 07:11:00,
2013-03-06 00:20:00,49.0,-99.9,-100.00,ENE,77,6.0,6.0,-999,-99.99,,,-99.99,,2013-03-06 07:20:00,
2013-03-06 00:22:00,48.0,-99.9,-100.00,ENE,73,4.0,6.0,-999,-99.99,,,-99.99,,2013-03-06 07:22:00,
2013-03-06 01:01:00,49.0,-99.9,-100.00,ENE,77,6.0,6.0,-999,-99.99,,,-99.99,,2013-03-06 08:01:00,
2013-03-06 01:11:00,49.0,-99.9,-100.00,ENE,77,6.0,6.0,-999,-99.99,,,-99.99,,2013-03-06 08:11:00,
2013-03-06 02:00:00,47.0,-99.9,-100.00,ENE,72,6.0,7.0,-999,-99.99,,,-99.99,,2013-03-06 09:00:00,
2013-03-06 02:02:00,47.0,-99.9,-100.00,ENE,76,5.0,8.0,-999,-99.99,,,-99.99,,2013-03-06 09:02:00,
2013-03-06 02:12:00,47.0,-99.9,-100.00,ENE,76,5.0,8.0,-999,-99.99,,,-99.99,,2013-03-06 09:12:00,
2013-03-06 02:22:00,47.0,-99.9,-100.00,ENE,76,5.0,8.0,-999,-99.99,,,-99.99,,2013-03-06 09:22:00,
2013-03-06 02:52:00,47.0,-99.9,-100.00,ENE,72,6.0,7.0,-999,-99.99,,,-99.99,,2013-03-06 09:52:00,
2013-03-06 03:22:00,47.0,-99.9,-100.00,ENE,77,4.0,7.0,-999,-99.99,,,-99.99,,2013-03-06 10:22:00,
2013-03-06 03:32:00,47.0,-99.9,-100.00,ENE,77,4.0,7.0,-999,-99.99,,,-99.99,,2013-03-06 10:32:00,
2013-03-06 04:02:00,47.0,-99.9,-100.00,East,89,6.0,7.0,-999,-99.99,,,-99.99,,2013-03-06 11:02:00,
2013-03-06 04:10:00,47.0,-99.9,-100.00,East,92,5.0,9.0,-999,-99.99,,,-99.99,,2013-03-06 11:10:00,
2013-03-06 04:12:00,47.0,-99.9,-100.00,East,89,6.0,7.0,-999,-99.99,,,-99.99,,2013-03-06 11:12:00,
2013-03-06 04:23:00,47.0,-99.9,-100.00,East,89,6.0,7.0,-999,-99.99,,,-99.99,,2013-03-06 11:23:00,
2013-03-06 04:53:00,47.0,-99.9,-100.00,East,92,5.0,9.0,-999,-99.99,,,-99.99,,2013-03-06 11:53:00,
2013-03-06 05:00:00,47.0,-99.9,-100.00,East,81,5.0,8.0,-999,-99.99,,,-99.99,,2013-03-06 12:00:00,
2013-03-06 05:02:00,47.0,-99.9,-100.00,East,92,5.0,9.0,-999,-99.99,,,-99.99,,2013-03-06 12:02:00,
2013-03-06 05:53:00,47.0,-99.9,-100.00,East,81,5.0,8.0,-999,-99.99,,,-99.99,,2013-03-06 12:53:00,
2013-03-06 06:00:00,47.0,-99.9,-100.00,East,81,7.0,9.0,-999,-99.99,,,-99.99,,2013-03-06 13:00:00,
2013-03-06 06:52:00,47.0,-99.9,-100.00,East,81,7.0,9.0,-999,-99.99,,,-99.99,,2013-03-06 13:52:00,
2013-03-06 07:22:00,47.0,-99.9,-100.00,East,81,5.0,7.0,-999,-99.99,,,-99.99,,2013-03-06 14:22:00,
2013-03-06 07:32:00,47.0,-99.9,-100.00,East,79,5.0,9.0,-999,-99.99,,,-99.99,,2013-03-06 14:32:00,
2013-03-06 07:42:00,47.0,-99.9,-100.00,East,79,5.0,9.0,-999,-99.99,,,-99.99,,2013-03-06 14:42:00,
2013-03-06 08:22:00,49.0,-99.9,-100.00,East,89,6.0,9.0,-999,-99.99,,,-99.99,,2013-03-06 15:22:00,
2013-03-06 08:32:00,49.0,-99.9,-100.00,East,89,6.0,9.0,-999,-99.99,,,-99.99,,2013-03-06 15:32:00,
2013-03-06 08:40:00,53.0,-99.9,-100.00,ENE,78,5.0,7.0,-999,-99.99,,,-99.99,,2013-03-06 15:40:00,
2013-03-06 08:52:00,50.0,-99.9,-100.00,ENE,78,5.0,8.0,-999,-99.99,,,-99.99,,2013-03-06 15:52:00,
2013-03-06 09:02:00,50.0,-99.9,-100.00,ENE,78,5.0,8.0,-999,-99.99,,,-99.99,,2013-03-06 16:02:00,
2013-03-06 09:22:00,53.0,-99.9,-100.00,ENE,78,5.0,7.0,-999,-99.99,,,-99.99,,2013-03-06 16:22:00,
2013-03-06 09:32:00,53.0,-99.9,-100.00,ENE,78,5.0,7.0,-999,-99.99,,,-99.99,,2013-03-06 16:32:00,
2013-03-06 09:40:00,54.0,-99.9,-100.00,East,81,5.0,7.0,-999,-99.99,,,-99.99,,2013-03-06 16:40:00,
2013-03-06 10:20:00,58.0,-99.9,-100.00,East,91,5.0,6.0,-999,-99.99,,,-99.99,,2013-03-06 17:20:00,
2013-03-06 10:22:00,54.0,-99.9,-100.00,East,81,5.0,7.0,-999,-99.99,,,-99.99,,2013-03-06 17:22:00,
2013-03-06 10:32:00,54.0,-99.9,-100.00,East,81,5.0,7.0,-999,-99.99,,,-99.99,,2013-03-06 17:32:00,
2013-03-06 10:53:00,57.0,-99.9,-100.00,East,87,5.0,6.0,-999,-99.99,,,-99.99,,2013-03-06 17:53:00,
2013-03-06 11:02:00,58.0,-99.9,-100.00,East,91,5.0,6.0,-999,-99.99,,,-99.99,,2013-03-06 18:02:00,
2013-03-06 11:20:00,62.0,-99.9,-100.00,ESE,104,4.0,5.0,-999,-99.99,,,-99.99,,2013-03-06 18:20:00,
2013-03-06 12:02:00,62.0,-99.9,-100.00,ESE,104,4.0,5.0,-999,-99.99,,,-99.99,,2013-03-06 19:02:00,
2013-03-06 12:12:00,62.0,-99.9,-100.00,ESE,104,4.0,5.0,-999,-99.99,,,-99.99,,2013-03-06 19:12:00,
2013-03-06 12:20:00,64.0,-99.9,-100.00,ENE,69,2.0,2.0,-999,-99.99,,,-99.99,,2013-03-06 19:20:00,
2013-03-06 13:02:00,64.0,-99.9,-100.00,ENE,69,2.0,2.0,-999,-99.99,,,-99.99,,2013-03-06 20:02:00,
2013-03-06 13:12:00,64.0,-99.9,-100.00,ENE,69,2.0,2.0,-999,-99.99,,,-99.99,,2013-03-06 20:12:00,
2013-03-06 13:20:00,68.0,-99.9,-100.00,ESE,107,2.0,4.0,-999,-99.99,,,-99.99,,2013-03-06 20:20:00,
2013-03-06 14:03:00,68.0,-99.9,-100.00,ESE,107,2.0,4.0,-999,-99.99,,,-99.99,,2013-03-06 21:03:00,
2013-03-06 14:12:00,68.0,-99.9,-100.00,ESE,107,2.0,4.0,-999,-99.99,,,-99.99,,2013-03-06 21:12:00,
2013-03-06 14:20:00,70.0,-99.9,-100.00,NE,44,1.0,2.0,-999,-99.99,,,-99.99,,2013-03-06 21:20:00,
2013-03-06 15:02:00,70.0,-99.9,-100.00,NE,44,1.0,2.0,-999,-99.99,,,-99.99,,2013-03-06 22:02:00,
2013-03-06 15:12:00,70.0,-99.9,-100.00,NE,44,1.0,2.0,-999,-99.99,,,-99.99,,2013-03-06 22:12:00,
2013-03-06 15:20:00,72.0,-99.9,-100.00,ESE,121,3.0,4.0,-999,-99.99,,,-99.99,,2013-03-06 22:20:00,
2013-03-06 16:02:00,72.0,-99.9,-100.00,ESE,121,3.0,4.0,-999,-99.99,,,-99.99,,2013-03-06 23:02:00,
2013-03-06 16:11:00,72.0,-99.9,-100.00,ESE,121,3.0,4.0,-999,-99.99,,,-99.99,,2013-03-06 23:11:00,
2013-03-06 16:20:00,73.0,-99.9,-100.00,ESE,114,1.0,3.0,-999,-99.99,,,-99.99,,2013-03-06 23:20:00,
2013-03-06 17:02:00,73.0,-99.9,-100.00,ESE,114,1.0,3.0,-999,-99.99,,,-99.99,,2013-03-07 00:02:00,
2013-03-06 17:11:00,73.0,-99.9,-100.00,ESE,114,1.0,3.0,-999,-99.99,,,-99.99,,2013-03-07 00:11:00,
2013-03-06 17:20:00,71.0,-99.9,-100.00,ENE,58,1.0,2.0,-999,-99.99,,,-99.99,,2013-03-07 00:20:00,
2013-03-06 18:02:00,71.0,-99.9,-100.00,ENE,58,1.0,2.0,-999,-99.99,,,-99.99,,2013-03-07 01:02:00,
2013-03-06 18:12:00,71.0,-99.9,-100.00,ENE,58,1.0,2.0,-999,-99.99,,,-99.99,,2013-03-07 01:12:00,
2013-03-06 19:01:00,65.0,-99.9,-100.00,ENE,67,1.0,2.0,-999,-99.99,,,-99.99,,2013-03-07 02:01:00,
2013-03-06 19:11:00,65.0,-99.9,-100.00,ENE,67,1.0,2.0,-999,-99.99,,,-99.99,,2013-03-07 02:11:00,
2013-03-06 19:22:00,65.0,-99.9,-100.00,NE,55,3.0,5.0,-999,-99.99,,,-99.99,,2013-03-07 02:22:00,
2013-03-06 19:32:00,65.0,-99.9,-100.00,NE,55,3.0,5.0,-999,-99.99,,,-99.99,,2013-03-07 02:32:00,
2013-03-06 19:40:00,64.0,-99.9,-100.00,East,87,2.0,3.0,-999,-99.99,,,-99.99,,2013-03-07 02:40:00,
2013-03-06 20:22:00,64.0,-99.9,-100.00,East,87,2.0,3.0,-999,-99.99,,,-99.99,,2013-03-07 03:22:00,
2013-03-06 20:32:00,64.0,-99.9,-100.00,East,87,2.0,3.0,-999,-99.99,,,-99.99,,2013-03-07 03:32:00,
2013-03-06 20:40:00,62.0,-99.9,-100.00,ENE,75,2.0,3.0,-999,-99.99,,,-99.99,,2013-03-07 03:40:00,
2013-03-06 21:22:00,62.0,-99.9,-100.00,ENE,75,2.0,3.0,-999,-99.99,,,-99.99,,2013-03-07 04:22:00,
2013-03-06 21:32:00,62.0,-99.9,-100.00,ENE,75,2.0,3.0,-999,-99.99,,,-99.99,,2013-03-07 04:32:00,
2013-03-06 21:40:00,61.0,-99.9,-100.00,East,84,4.0,5.0,-999,-99.99,,,-99.99,,2013-03-07 04:40:00,
2013-03-06 22:23:00,61.0,-99.9,-100.00,East,84,4.0,5.0,-999,-99.99,,,-99.99,,2013-03-07 05:23:00,
2013-03-06 22:32:00,61.0,-99.9,-100.00,East,84,4.0,5.0,-999,-99.99,,,-99.99,,2013-03-07 05:32:00,
2013-03-06 22:40:00,59.0,-99.9,-100.00,East,81,3.0,5.0,-999,-99.99,,,-99.99,,2013-03-07 05:40:00,
2013-03-06 23:20:00,56.0,-99.9,-100.00,East,81,2.0,6.0,-999,-99.99,,,-99.99,,2013-03-07 06:20:00,
2013-03-06 23:22:00,59.0,-99.9,-100.00,East,81,3.0,5.0,-999,-99.99,,,-99.99,,2013-03-07 06:22:00,
2013-03-06 23:32:00,59.0,-99.9,-100.00,East,81,3.0,5.0,-999,-99.99,,,-99.99,,2013-03-07 06:32:00,